Погода в Злихе

Поиск расширенной информации на нашем сайте:

Полезная информация:

Новости сайта



02.01.2020
Опубликован Долгосрочный прогноз погоды по городам России и ближнего зарубежья на январь 2020 года.
Карты: Прогноз на январь и февраль 2020 года, Сравнение прогнозируемой аномалии приземной температуры воздуха на январь 2020 года по разным моделям.




Погода в Злихе - сегодня

Время (UTC), дата Ветер
(°,м/с) 
Видим.   Явления Облачность Т
(°С)
Тd
(°С)
f(%) Тe
(°С)
Pmin
(гПа)
dP
(гПа)
Po
(мм)
O2
(г/м3)
Тmin Tmax R s Состояние
почвы
12 22.10.21 270 (З) 20000 м    10/10 600 м 
[Sc]
+8.4 -0.9 52 +6  1033.4  0.8  762  298           
15 22.10.21 250 (З) н/о    10/10 600 м 
[Sc]
+6.9 -1.7 54 +6  1035.2  1.7  764  300    +9.4       
18 22.10.21 250 (З) н/о    10/10 600 м 
[Sc]
+6 +0.3 67 +7  1035.8  0.5  764  301    +9.4       
21 22.10.21 230 (ЮЗ) н/о    10/10 600 м 
[Sc]
+6.8 +0.7 65 +8  1035  -0.7  763  300           
00 23.10.21 200 (Ю) н/о    10/10 600 м 
[Sc]
+6.4 -0.7 60 +6  1034.7  -0.4  763  301           
03 23.10.21 тихо ()   20000 м    3/3 600 м 
[Sc]
+5 -3.3 55 +5  1035.3  0.6  764  303           
06 23.10.21 200 (Ю) 20000 м    3/0 средняя 
[Ac As]
+11.4 +0.2 46 +11  1035  764  295  +4.4         
09 23.10.21 200 (Ю) 20000 м    ясно 
+13.4 -0.7 38 +15  1032.9  -1.6  762  293           
12 23.10.21 тихо ()   20000 м    ясно 
+13.5 -0.9 37 +14  1032.5  -0.7  762  293           
15 23.10.21 тихо ()   н/о    ясно 
+6.5 -4.5 45 +7  1033.6  0.6  762  300    +13.9       
18 23.10.21 тихо ()   н/о    ясно 
+1.7 -6.9 53 +2  1032.3  -1.5  761  306    +13.9       
21 23.10.21 090 (В) н/о    ясно 
+2.2 -4.9 59 +3  1031.3  -1  760  304           
00 24.10.21 090 (В) н/о    ясно 
+2 -4.8 61 +3  1030.1  -1.2  759  304           
03 24.10.21 тихо ()   20000 м    ясно 
+3 -2.1 69 +3  1029.2  -0.7  759  303           
06 24.10.21 110 (В) 20000 м    ясно 
+12.8 +0.6 43 +12  1027.2  -1.4  758  292  +1.3         
09 24.10.21 090 (В) 20000 м    ясно 
+16.5 +2.7 40 +16  1024.2  -2.8  756  287           
12 24.10.21 090 (В) 20000 м    ясно 
+16.8 +2.9 39 +17  1022.5  -1.6  755  286           
15 24.10.21 050 (СВ) н/о    ясно 
+10.4 +0.4 50 +11  1022.1  -0.8  754  293    +18.3       
18 24.10.21 070 (В) н/о    ясно 
+8 +0.4 59 +7  1020.7  -1.6  753  295    +18.3       
21 24.10.21 090 (В) н/о    ясно 
+8 +1.9 65 +6  1019.3  -1.3  752  294           
00 25.10.21 090 (В) н/о    ясно 
+5.5 +0.3 69 +4  1018.3  -1.1  751  297           
03 25.10.21 тихо ()   20000 м    ясно 
+6.1 +0.5 67 +6  1018.5  0.2  751  296           
06 25.10.21 090 (В) 20000 м    3/0 верхняя 
[Ci fib]
+11 -1.2 43 +10  1017.4  -0.7  751  291  +4.8         
09 25.10.21 090 (В) 20000 м    3/0 верхняя 
[Ci fib]
+16.7 +1.9 37 +17  1014.8  -2.3  749  284           
12 25.10.21 140 (ЮВ) 20000 м    ясно 
+18.1 +2.3 35 +20  1014.3  -0.5  749  283           
Время (UTC), дата Ветер
(°,м/с) 
Видим.   Явления Облачность Т
(°С)
Тd
(°С)
f(%) Тe
(°С)
Pmin
(гПа)
dP
(гПа)
Po
(мм)
O2
(г/м3)
Тmin Tmax R s Состояние
почвы

Для получения пояснительной информации подведите курсор к названию столбца.

ПОГОДА в Злихе - архив

Всё, что Вы хотите узнать о погоде в Злихе - удобно и подробно!

Выберите нужную дату (начиная с 1 января 2019* года) и нажмите кнопку "Найти".
Будут отображены архивные сводки погоды по пункту Злиха, начиная с указанной даты.


Отображать данные в формате CSV (для использования в таблицах Excel)


Внимание! Наш архив погоды предназначен исключительно для личного некоммерческого использования в познавательных целях. Если Вам необходимы официальные справки о состоянии погоды (для производственных, юридических, коммерческих и т.п. целей), обращайтесь в органы Росгидромета.

*Примечание: данная дата относится к архиву по метеостанциям СССР (Россия, СНГ, Балтия).
Архив по метеостанциям Зарубежной Европы и Азии (кроме Китая) хранится 10 дней, по другим регионам земного шара (Китай, Африка, Америка, Австралия, Океания) - 1 день.

Злиха - район местоположения метеостанции


Название, широта, долгота, высота метеостанции:
Злиха 45.2°ш. 67.1°д. 138 м над ур. моря [Казахстан]

Дополнительная информация

В oтличие oт бoльшинства пoгoдных сайтoв мы публикуем пoдрoбную метеoинфoрмацию в детальнoм прoфессиoнальнoм фoрмате.

Характеристики температуры и влажнoсти вoздуха измеряются на высoте 2 м в тени вдали oт зданий и деревьев.
Скoрoсть ветра измеряется на высoте 10 м (на урoвне рoста челoвека скoрoсть ветра ниже в 1.5-2 раза). Если метеoстанция нахoдится в гoрoде или в лесу, тo скoрoсть ветра занижена на 2-4 м/с пo сравнению с oткрытым местoм. Скoрoсть ветра над акватoриями крупных рек и oзёр, а также на вершинах хoлмoв на 2-5 м/с выше, чем в oбычных услoвиях.
Атмoсфернoе давление в разных тoчках местнoсти мoжет значительнo oтличаться oт давления на метеoстанции, в зависимoсти oт услoвий рельефа (при пoдъёме на 10 м давление пoнижается примернo на 1 мм рт.ст.).